Tracking 19242 objects as of 19-Sep-2018
HD Live streaming from Space Station
objects crossing your sky now

FENGYUN 1C DEB

Track FENGYUN 1C DEB now!
10-day predictions


NORAD ID: 31955
Int'l Code: 1999-025CNG
Perigee: 733.1 km
Apogee: 830.3 km
Inclination: 99.3 °
Period: 100.3 minutes
Semi major axis: 7152 km
RCS: 0.0141 m2 (small)
Launch date: May 10, 1999
Source: People's Republic of China (PRC)
Launch site: Taiyaun Space Center, China (TSC)

Note: This is SATELLITE DEBRIS
aabbcc
Your satellite tracking list
Your tracking list is empty




NASA's NSSDC Master Catalog

Two Line Element Set (TLE):
1 31955U 99025CNG 18261.38261811 +.00000642 +00000-0 +23617-3 0  9990
2 31955 099.2988 227.3272 0067949 011.2742 141.3953 14.35145696584756
Source of the keplerian elements: AFSPC